Private Wetterstation Ehingen
Wetterdaten: aktuell Sonntag, 22.10.2017 10:00
Datum Zeit Temperatur ThetaE Apparent Tem Schwlewert Luftfeuchte Gewitter-dex Luftdruck Regen Wind Richtung Richtung T Regen Regenrate UV Solar Taupunkt Windchill Windben
22.10.2017 10:00 8,4 C 28,0 C 4,5 C 13,9 C 86 % 0 cb 1017,3 hPa 0,0 l/m 15,6 km/h (3 Bft) S-SO 168 0 min 0,000 mm 0,4 UV-I 187 W/m 6,2 C 2,9 C 19,4 km/h (3 Bft)
22.10.2017 09:55 8,4 C 27,3 C 5,5 C 17,8 C 85 % 0 cb 1017,3 hPa 0,0 l/m 9,5 km/h (2 Bft) W-SW 250 0 min 0,000 mm 0,3 UV-I 177 W/m 6,0 C 6,1 C 16,8 km/h (3 Bft)
22.10.2017 09:45 8,3 C 26,5 C 4,4 C 13,0 C 85 % 0 cb 1017,4 hPa 0,0 l/m 14,1 km/h (3 Bft) W 259 0 min 0,000 mm 0,0 UV-I 120 W/m 5,9 C 3,5 C 17,1 km/h (3 Bft)
22.10.2017 09:40 8,3 C 26,5 C 5,1 C 13,0 C 86 % 0 cb 1017,4 hPa 0,0 l/m 10,5 km/h (2 Bft) W 279 0 min 0,000 mm 0,0 UV-I 116 W/m 6,1 C 5,4 C 21,5 km/h (4 Bft)
22.10.2017 09:35 8,3 C 26,5 C 4,5 C 13,2 C 86 % 0 cb 1017,4 hPa 0,0 l/m 13,2 km/h (3 Bft) SO 133 0 min 0,000 mm 0,0 UV-I 111 W/m 6,1 C 3,9 C 15,8 km/h (3 Bft)
22.10.2017 09:30 8,3 C 26,6 C 4,4 C 13,5 C 87 % 0 cb 1017,4 hPa 0,0 l/m 14,1 km/h (3 Bft) W-SW 243 0 min 0,000 mm 0,0 UV-I 103 W/m 6,3 C 3,5 C 19,8 km/h (3 Bft)
22.10.2017 09:25 8,3 C 27,0 C 5,0 C 13,7 C 87 % 0 cb 1017,4 hPa 0,0 l/m 11,4 km/h (2 Bft) W 264 0 min 0,000 mm 0,0 UV-I 96 W/m 6,3 C 4,9 C 17,1 km/h (3 Bft)
22.10.2017 09:20 8,3 C 27,1 C 5,2 C 13,7 C 88 % 0 cb 1017,4 hPa 0,0 l/m 10,5 km/h (2 Bft) W 261 0 min 0,000 mm 0,0 UV-I 91 W/m 6,4 C 5,4 C 15,8 km/h (3 Bft)
22.10.2017 09:15 8,2 C 27,1 C 5,1 C 13,9 C 88 % 0 cb 1017,5 hPa 0,0 l/m 10,5 km/h (2 Bft) W-SW 254 0 min 0,000 mm 0,0 UV-I 88 W/m 6,3 C 5,3 C 16,3 km/h (3 Bft)
22.10.2017 09:10 8,2 C 27,3 C 5,0 C 14,2 C 89 % 0 cb 1017,5 hPa 0,0 l/m 11,4 km/h (2 Bft) W-SW 254 0 min 0,000 mm 0,0 UV-I 83 W/m 6,5 C 4,8 C 16,3 km/h (3 Bft)
22.10.2017 09:05 8,1 C 27,6 C 4,8 C 14,5 C 89 % 0 cb 1017,5 hPa 0,0 l/m 12,3 km/h (2 Bft) W-SW 252 0 min 0,000 mm 0,0 UV-I 78 W/m 6,4 C 4,2 C 17,1 km/h (3 Bft)
22.10.2017 09:00 8,0 C 27,9 C 5,3 C 14,4 C 90 % 0 cb 1017,5 hPa 0,0 l/m 9,7 km/h (2 Bft) SW 214 0 min 0,000 mm 0,0 UV-I 74 W/m 6,5 C 5,6 C 14,1 km/h (3 Bft)
22.10.2017 08:55 7,9 C 27,8 C 4,7 C 14,5 C 91 % 0 cb 1017,5 hPa 0,0 l/m 12,3 km/h (2 Bft) W-SW 240 0 min 0,000 mm 0,0 UV-I 70 W/m 6,5 C 3,9 C 19,8 km/h (3 Bft)
22.10.2017 08:50 7,8 C 27,9 C 4,7 C 14,5 C 93 % 0 cb 1017,6 hPa 0,0 l/m 12,3 km/h (2 Bft) SW 234 0 min 0,000 mm 0,0 UV-I 64 W/m 6,7 C 3,8 C 16,3 km/h (3 Bft)
22.10.2017 08:45 7,7 C 27,9 C 5,1 C 14,5 C 94 % 0 cb 1017,6 hPa 0,0 l/m 9,7 km/h (2 Bft) SW 234 0 min 0,000 mm 0,0 UV-I 60 W/m 6,8 C 5,2 C 16,3 km/h (3 Bft)
22.10.2017 08:40 7,7 C 27,9 C 4,9 C 14,5 C 94 % 0 cb 1017,6 hPa 0,0 l/m 10,5 km/h (2 Bft) W-SW 254 0 min 0,000 mm 0,0 UV-I 54 W/m 6,8 C 4,7 C 12,3 km/h (2 Bft)
22.10.2017 08:35 7,6 C 27,9 C 4,8 C 14,5 C 95 % 0 cb 1017,6 hPa 0,0 l/m 10,5 km/h (2 Bft) W-SW 254 0 min 0,000 mm 0,0 UV-I 49 W/m 6,9 C 4,6 C 12,3 km/h (2 Bft)
22.10.2017 08:30 7,6 C 27,9 C 5,0 C 14,3 C 95 % 0 cb 1017,6 hPa 0,0 l/m 9,7 km/h (2 Bft) W-SW 254 0 min 0,000 mm 0,0 UV-I 44 W/m 6,9 C 5,1 C 11,4 km/h (2 Bft)
22.10.2017 08:25 7,5 C 27,6 C 5,4 C 14,1 C 95 % 0 cb 1017,6 hPa 0,0 l/m 7,0 km/h (2 Bft) W 264 0 min 0,000 mm 0,0 UV-I 38 W/m 6,8 C 7,0 C 11,4 km/h (2 Bft)
22.10.2017 08:20 7,5 C 27,5 C 5,0 C 13,9 C 94 % 0 cb 1017,6 hPa 0,0 l/m 8,8 km/h (2 Bft) W 264 0 min 0,000 mm 0,0 UV-I 31 W/m 6,6 C 5,6 C 11,4 km/h (2 Bft)
22.10.2017 08:15 7,4 C 27,3 C 5,1 C 13,9 C 94 % 0 cb 1017,6 hPa 0,0 l/m 7,9 km/h (2 Bft) W 264 0 min 0,000 mm 0,0 UV-I 25 W/m 6,5 C 6,2 C 10,5 km/h (2 Bft)
22.10.2017 08:10 7,4 C 27,3 C 5,4 C 13,7 C 94 % 0 cb 1017,6 hPa 0,0 l/m 6,1 km/h (2 Bft) W 262 0 min 0,000 mm 0,0 UV-I 18 W/m 6,5 C 7,4 C 7,9 km/h (2 Bft)
22.10.2017 08:05 7,4 C 27,1 C 5,4 C 13,7 C 93 % 0 cb 1017,6 hPa 0,0 l/m 6,1 km/h (2 Bft) W 262 0 min 0,000 mm 0,0 UV-I 11 W/m 6,3 C 7,4 C 7,9 km/h (2 Bft)
22.10.2017 08:00 7,4 C 27,1 C 5,5 C 13,7 C 93 % 0 cb 1017,6 hPa 0,0 l/m 5,3 km/h (1 Bft) W 262 0 min 0,000 mm 0,0 UV-I 0 W/m 6,3 C 7,4 C 7,9 km/h (2 Bft)
22.10.2017 07:55 7,4 C 27,1 C 5,4 C 13,8 C 93 % 0 cb 1017,6 hPa 0,0 l/m 6,1 km/h (2 Bft) W 262 0 min 0,000 mm 0,0 UV-I 0 W/m 6,3 C 7,4 C 7,0 km/h (2 Bft)
22.10.2017 07:50 7,5 C 27,1 C 5,3 C 13,8 C 92 % 0 cb 1017,6 hPa 0,0 l/m 7,0 km/h (2 Bft) W 262 0 min 0,000 mm 0,0 UV-I 0 W/m 6,3 C 7,0 C 7,9 km/h (2 Bft)
22.10.2017 07:45 7,5 C 27,1 C 6,6 C 13,8 C 92 % 0 cb 1017,6 hPa 0,0 l/m 0,0 km/h (0 Bft) W 262 0 min 0,000 mm 0,0 UV-I 0 W/m 6,3 C 7,5 C 7,0 km/h (2 Bft)
22.10.2017 07:40 7,5 C 27,1 C 6,6 C 14,0 C 92 % 0 cb 1017,6 hPa 0,0 l/m 0,0 km/h (0 Bft) W 262 0 min 0,000 mm 0,0 UV-I 0 W/m 6,3 C 7,5 C 0,0 km/h (0 Bft)
22.10.2017 07:35 7,6 C 27,4 C 6,8 C 14,0 C 92 % 0 cb 1017,6 hPa 0,0 l/m 0,0 km/h (0 Bft) W 262 0 min 0,000 mm 0,0 UV-I 0 W/m 6,4 C 7,6 C 7,0 km/h (2 Bft)
22.10.2017 07:30 7,6 C 27,4 C 5,2 C 14,2 C 92 % 0 cb 1017,6 hPa 0,0 l/m 7,9 km/h (2 Bft) W 262 0 min 0,000 mm 0,0 UV-I 0 W/m 6,4 C 6,4 C 9,7 km/h (2 Bft)
22.10.2017 07:25 7,7 C 27,6 C 5,4 C 14,0 C 92 % 0 cb 1017,6 hPa 0,0 l/m 7,9 km/h (2 Bft) W-SW 256 0 min 0,000 mm 0,0 UV-I 0 W/m 6,5 C 6,5 C 12,3 km/h (2 Bft)
22.10.2017 07:20 7,7 C 27,4 C 5,7 C 14,2 C 91 % 0 cb 1017,6 hPa 0,0 l/m 6,1 km/h (2 Bft) W-SW 252 0 min 0,000 mm 0,0 UV-I 0 W/m 6,3 C 7,7 C 7,9 km/h (2 Bft)
22.10.2017 07:15 7,8 C 27,6 C 5,9 C 14,2 C 91 % 0 cb 1017,6 hPa 0,0 l/m 5,3 km/h (1 Bft) W 259 0 min 0,000 mm 0,0 UV-I 0 W/m 6,4 C 7,8 C 10,5 km/h (2 Bft)
22.10.2017 07:10 7,8 C 27,6 C 7,0 C 14,4 C 91 % 0 cb 1017,6 hPa 0,0 l/m 0,0 km/h (0 Bft) W 260 0 min 0,000 mm 0,0 UV-I 0 W/m 6,4 C 7,8 C 5,3 km/h (1 Bft)
22.10.2017 07:05 7,9 C 27,8 C 7,1 C 14,6 C 91 % 0 cb 1017,5 hPa 0,0 l/m 0,0 km/h (0 Bft) W 260 0 min 0,000 mm 0,0 UV-I 0 W/m 6,5 C 7,9 C 5,3 km/h (1 Bft)
22.10.2017 07:00 8,0 C 28,0 C 5,9 C 14,8 C 91 % 0 cb 1017,5 hPa 0,0 l/m 7,0 km/h (2 Bft) W 260 0 min 0,000 mm 0,0 UV-I 0 W/m 6,6 C 7,5 C 7,9 km/h (2 Bft)
22.10.2017 06:55 8,1 C 28,1 C 6,0 C 15,0 C 91 % 0 cb 1017,5 hPa 0,0 l/m 7,0 km/h (2 Bft) W 260 0 min 0,000 mm 0,0 UV-I 0 W/m 6,7 C 7,6 C 7,9 km/h (2 Bft)
22.10.2017 06:50 8,2 C 28,4 C 6,4 C 15,0 C 91 % 0 cb 1017,5 hPa 0,0 l/m 5,3 km/h (1 Bft) W-SW 251 0 min 0,000 mm 0,0 UV-I 0 W/m 6,8 C 8,2 C 6,1 km/h (2 Bft)
22.10.2017 06:45 8,2 C 28,4 C 7,5 C 15,2 C 91 % 0 cb 1017,5 hPa 0,0 l/m 0,0 km/h (0 Bft) W-SW 251 0 min 0,000 mm 0,0 UV-I 0 W/m 6,8 C 8,2 C 7,0 km/h (2 Bft)
22.10.2017 06:40 8,3 C 28,6 C 6,6 C 15,2 C 91 % 0 cb 1017,4 hPa 0,0 l/m 5,3 km/h (1 Bft) S-SW 208 0 min 0,000 mm 0,0 UV-I 0 W/m 6,9 C 8,3 C 7,9 km/h (2 Bft)
22.10.2017 06:35 8,3 C 28,6 C 6,6 C 15,4 C 91 % 0 cb 1017,4 hPa 0,0 l/m 5,3 km/h (1 Bft) W 270 0 min 0,000 mm 0,0 UV-I 0 W/m 6,9 C 8,3 C 11,4 km/h (2 Bft)
_ Min-Zeit 08:15 09:45 09:45 09:45 00:00 10:00 00:15 - 07:45 - - - - - - 09:45 10:00 07:40
Minimum _ 7,4 C 26,5 C 4,4 C 13,0 C 84 % 0 cb 1017,0 hPa - 0,0 km/h (0 Bft) - - - - - - 5,9 C 2,9 C 0,0 km/h (0 Bft)
_ Max-Zeit 00:40 01:30 01:00 00:00 08:35 01:30 01:30 01:45 10:00 - - 01:45 01:25 10:00 10:00 00:40 00:40 09:40
Maximum _ 10,1 C 32,6 C 8,9 C 25,7 C 95 % 2 cb 1019,3 hPa 0,6 l/m 15,6 km/h
S-SO (3 Bft)
- - 5 min 9,900 mm 0,4 UV-I 187 W/m 8,0 C 10,1 C 21,5 km/h
W (4 Bft)
Durchschnitt _ 8,6 C 29,4 C 6,5 C 16,1 C 90 % 0 cb 1017,8 hPa #8,1 l/m 7,5 km/h (2 Bft) W-SW - #1:20 h #127,400 mm 0,3 UV-I 16 W/m 7,0 C 7,4 C 11,2 km/h (2 Bft)